[[{"header":{"parameterUnit":"m.s-1","parameterCategory":1,"la1":30.2991,"la2":30.254,"lo1":-89.0895,"lo2":-89.0444,"dy":0.0017,"dx":0.0017,"nx":28,"ny":28,"refTime":"2025-05-27T03:00:00:Z","depth":0,"parameterNumber":2,"parameterNumberName":"U-component_of_WINDS"},"data":[0,0,0,0,0,0,0,0,0,0,0,0,0,0,0,0,0,0,0,0,0,0,0,0,0,0,0,0,0,0,0,0,0,0,0,0,0,0,0,0,0,0,0,0,0,0,0,0,0,0,0,0,0,0,0,0,0,0,1.0662,1.0665,0,1.0979,1.0982,1.0986,1.1142,1.1142,1.1142,1.1142,1.1463,1.1472,1.148,0,0,0,0,0,0,0,0,0,0,0,0,0,1.0188,1.0196,1.0661,1.0666,1.0669,1.0978,1.0983,1.0987,1.1142,1.1142,1.1142,1.1142,1.1461,1.1471,1.1481,0,0,0,0,0,0,0,0,0,0,0,0,0,1.0438,1.0198,1.0661,1.0784,1.0798,1.0977,1.0983,1.0988,1.1142,1.1142,1.1142,1.1142,1.1457,1.147,1.1482,1.1562,0,0,1.1522,1.1527,0,0,0,0,0,0,0,0,1.0424,1.0455,1.0762,1.0776,1.0792,1.1021,1.0934,1.1181,1.1142,1.1011,1.1142,1.1142,1.1316,1.134,1.14,1.1578,1.1591,1.1523,1.1531,1.1536,1.154,0,0,0,0,0,0,0,1.0406,1.0442,1.0787,1.0766,1.0785,1.0823,1.0858,1.0981,1.116,1.1022,1.1035,1.107,1.1324,1.1387,1.1409,1.1596,1.1523,1.1534,1.1542,1.1547,1.1856,1.1857,0,0,0,0,0,0,1.0369,1.0427,1.0777,1.0797,1.0604,1.0831,1.0871,1.0947,1.1159,1.1191,1.107,1.1076,1.1365,1.1393,1.142,1.153,1.1536,1.1548,1.1556,1.1856,1.1856,1.1857,0,0,0,0,0,0,1.0358,1.0399,1.0764,1.0615,1.0665,1.0839,1.0924,1.0954,1.1017,1.1195,1.1227,1.1102,1.1366,1.1402,1.1527,1.1543,1.1554,1.1566,1.1855,1.1856,1.1857,1.1747,0,0,0,0,0,0,1.0344,1.0394,1.0427,1.0615,1.0672,1.0865,1.0925,1.096,1.1039,1.105,1.1233,1.1263,1.1369,1.1506,1.1539,1.1561,1.1576,1.1855,1.1856,1.1857,1.175,1.1743,1.1738,0,0,0,0,0,1.0327,1.0382,1.0428,1.0469,1.0717,1.0866,1.0899,1.102,1.1039,1.1074,1.1188,1.1257,1.1535,1.1518,1.1556,1.1582,1.1854,1.1855,1.1856,1.1752,1.1745,1.1738,0,0,0,0,0,0,1.019,1.0409,1.0462,1.058,1.0703,1.0892,1.0939,1.1008,1.1128,1.1133,1.1278,1.1318,1.1429,1.1518,1.1494,1.1671,1.1701,1.171,1.1609,1.1603,1.1598,1.1575,1.1587,0,0,0,0,0,1.0174,1.0278,1.0463,1.0549,1.0609,1.0762,1.0832,1.0915,1.1048,1.1101,1.1224,1.135,1.1466,1.1539,1.1656,1.1763,1.1805,1.1799,1.1793,1.1788,1.1794,1.1858,1.1858,1.1861,1.1861,1.1861,0,0,1.0141,1.0274,1.033,1.0525,1.0631,1.0735,1.0805,1.0912,1.099,1.1117,1.1243,1.1337,1.1487,1.1603,1.166,1.168,1.1802,1.1789,1.1783,1.1793,1.1859,1.1859,1.1858,1.1861,1.1861,1.1861,0,0,1.0136,1.0245,1.0331,1.0435,1.0594,1.0696,1.0716,1.0895,1.0963,1.1091,1.1189,1.1283,1.1479,1.1583,1.1661,1.1694,1.1763,1.1728,1.1698,1.1759,1.1759,1.1759,1.1772,1.1775,1.1733,1.1733,1.1733,0,1.0075,1.0236,1.0365,1.0467,1.055,1.067,1.0757,1.0852,1.104,1.1094,1.1114,1.1364,1.1473,1.1615,1.1623,1.1682,1.171,1.1708,1.1749,1.175,1.1753,1.1767,1.1771,1.1728,1.1728,1.1729,1.1729,0,1.0154,1.0264,1.0314,1.0494,1.0582,1.0676,1.0818,1.0892,1.0967,1.1067,1.1196,1.1331,1.1478,1.1517,1.1591,1.167,1.1678,1.1721,1.1755,1.1745,1.1761,1.1767,1.172,1.1722,1.1724,1.1725,0,0,1.0072,1.0323,1.0339,1.0423,1.0607,1.0694,1.0793,1.0937,1.0998,1.1123,1.121,1.1374,1.1415,1.1504,1.159,1.1643,1.1662,1.168,1.1686,1.1673,1.1758,1.1726,1.173,1.1707,1.1709,1.171,1.1746,0,1.0093,1.0277,1.0396,1.0533,1.0637,1.0752,1.0838,1.096,1.1055,1.1157,1.1262,1.1376,1.1422,1.1476,1.1534,1.1647,1.1681,1.1646,1.179,1.1793,1.175,1.1738,1.1704,1.1731,1.1753,1.1754,1.1755,0,1.0142,1.0266,1.0413,1.0587,1.0635,1.0711,1.0853,1.0948,1.1089,1.1155,1.1253,1.1341,1.1449,1.1473,1.1624,1.1598,1.1663,1.1728,1.1732,1.1751,1.1774,1.1758,1.1743,1.1747,1.1766,1.1765,1.1764,0,1.0069,1.0272,1.0387,1.0455,1.066,1.0711,1.0798,1.0939,1.1018,1.1142,1.1195,1.1329,1.1402,1.1503,1.1625,1.163,1.1764,1.1798,1.1822,1.1819,1.1846,1.1843,1.1842,1.1885,1.1885,1.1885,1.1885,0,1.008,1.0166,1.0357,1.0428,1.0527,1.0663,1.0757,1.0854,1.0978,1.107,1.1176,1.1259,1.1414,1.1516,1.1611,1.1722,1.1754,1.181,1.1835,1.1802,1.1795,1.1848,1.1849,1.1886,1.1886,1.1886,1.1886,0,1.0016,1.0147,1.028,1.0464,1.0512,1.0578,1.0735,1.0808,1.0909,1.1023,1.1057,1.1215,1.1341,1.1472,1.1641,1.1705,1.1813,1.1846,1.1766,1.178,1.1797,1.1794,1.1832,1.1845,1.1876,1.1876,1.1875,0,1.0015,1.0084,1.0276,1.0345,1.0431,1.0541,1.0623,1.0759,1.084,1.1005,1.1058,1.1191,1.1306,1.15,1.163,1.176,1.1798,1.1802,1.1818,1.1783,1.1799,1.1794,1.1802,1.1796,1.1795,1.1795,1.1794,0,1.0,1.0062,1.0177,1.0315,1.041,1.0525,1.0643,1.0694,1.0852,1.0938,1.1068,1.1156,1.133,1.1461,1.1607,1.1697,1.1772,1.1788,1.1801,1.1768,1.1719,1.1747,1.1752,1.1787,1.1787,1.1788,1.1788,1.1789,0.997,1.0037,1.0183,1.0307,1.0411,1.0519,1.0597,1.0708,1.082,1.0973,1.1046,1.1176,1.1315,1.1519,1.1606,1.171,1.1731,1.1749,1.1754,1.1757,1.1749,1.1701,1.1737,1.1737,1.1737,1.1738,1.1738,0,0.9962,1.0061,1.0174,1.0338,1.0436,1.0499,1.0633,1.0711,1.0825,1.0948,1.1059,1.1209,1.1337,1.1476,1.1612,1.1668,1.1706,1.1699,1.1697,1.1717,1.1722,1.1698,1.1666,1.1666,1.1666,1.1666,1.1666,1.1666,0.9969,1.0087,1.0166,1.0335,1.0435,1.0565,1.0636,1.0737,1.0837,1.0999,1.1107,1.1197,1.1328,1.1474,1.1594,1.1632,1.1677,1.1661,1.1708,1.1711,1.1716,1.1721,1.17,1.1669,1.1669,1.1695,1.1695,1.1695]},{"header":{"parameterUnit":"m.s-1","parameterCategory":1,"la1":30.2991,"la2":30.254,"lo1":-89.0895,"lo2":-89.0444,"dy":0.0017,"dx":0.0017,"nx":28,"ny":28,"refTime":"2025-05-27T03:00:00:Z","depth":0,"parameterNumber":3,"parameterNumberName":"V-component_of_WINDS"},"data":[0,0,0,0,0,0,0,0,0,0,0,0,0,0,0,0,0,0,0,0,0,0,0,0,0,0,0,0,0,0,0,0,0,0,0,0,0,0,0,0,0,0,0,0,0,0,0,0,0,0,0,0,0,0,0,0,0,0,1.8067,1.8067,0,1.8145,1.8146,1.8146,1.8216,1.8217,1.8218,1.8219,1.8294,1.8295,1.8296,0,0,0,0,0,0,0,0,0,0,0,0,0,1.7973,1.7974,1.8066,1.8067,1.8068,1.8144,1.8146,1.8147,1.8216,1.8217,1.8218,1.8219,1.8293,1.8295,1.8296,0,0,0,0,0,0,0,0,0,0,0,0,0,1.8028,1.7974,1.8066,1.8112,1.8117,1.8144,1.8146,1.8147,1.8216,1.8217,1.8218,1.8219,1.8293,1.8295,1.8297,1.8283,0,0,1.8302,1.8303,0,0,0,0,0,0,0,0,1.8025,1.8032,1.8105,1.8109,1.8115,1.8172,1.814,1.8192,1.8215,1.8178,1.8219,1.822,1.8252,1.8257,1.8269,1.8286,1.829,1.8302,1.8304,1.8304,1.8305,0,0,0,0,0,0,0,1.8021,1.8029,1.8097,1.8106,1.8112,1.8128,1.8137,1.815,1.8207,1.8182,1.8187,1.8195,1.8255,1.8267,1.8271,1.8291,1.8302,1.8304,1.8305,1.8306,1.8301,1.83,0,0,0,0,0,0,1.8011,1.8025,1.8095,1.81,1.8072,1.8128,1.8139,1.8152,1.8207,1.8217,1.8194,1.8198,1.8263,1.8269,1.8274,1.8263,1.8304,1.8306,1.8307,1.8303,1.8301,1.83,0,0,0,0,0,0,1.8008,1.8016,1.8092,1.8064,1.8075,1.8129,1.8143,1.8153,1.8166,1.8217,1.8227,1.8197,1.8265,1.8272,1.8281,1.8267,1.8307,1.8309,1.8304,1.8302,1.8301,1.824,0,0,0,0,0,0,1.8005,1.8015,1.8012,1.8063,1.8076,1.8098,1.8142,1.8154,1.8169,1.8175,1.8222,1.823,1.8266,1.8278,1.8283,1.827,1.831,1.8306,1.8303,1.8301,1.8244,1.8236,1.823,0,0,0,0,0,1.8002,1.799,1.8011,1.8019,1.8073,1.8097,1.8104,1.8147,1.8168,1.8164,1.8197,1.8229,1.8267,1.8278,1.8284,1.8272,1.8307,1.8304,1.8301,1.8247,1.8238,1.823,0,0,0,0,0,0,1.7934,1.7998,1.8022,1.8027,1.8056,1.8109,1.8106,1.8136,1.8159,1.8164,1.8214,1.8224,1.8228,1.825,1.8261,1.8262,1.8291,1.8289,1.8247,1.824,1.8233,1.8228,1.8311,0,0,0,0,0,1.792,1.7936,1.799,1.7989,1.8003,1.8052,1.8064,1.8094,1.8126,1.8138,1.8172,1.82,1.8219,1.823,1.825,1.8246,1.8258,1.8241,1.8234,1.8228,1.8227,1.8228,1.8221,1.8291,1.8291,1.8291,0,0,1.7891,1.7928,1.7934,1.7977,1.8003,1.8018,1.8062,1.8075,1.8086,1.814,1.8152,1.8177,1.8212,1.8215,1.8218,1.8234,1.821,1.8225,1.822,1.8222,1.8224,1.8217,1.8212,1.8289,1.8289,1.829,0,0,1.7845,1.7874,1.7878,1.7903,1.7943,1.7976,1.7976,1.8024,1.8044,1.8056,1.8098,1.811,1.8141,1.8165,1.818,1.8143,1.8173,1.8147,1.8113,1.8113,1.8108,1.8103,1.8091,1.8086,1.8145,1.8145,1.8145,0,1.7804,1.7829,1.7875,1.7887,1.7904,1.7954,1.7958,1.7979,1.8023,1.8033,1.805,1.8091,1.8117,1.8127,1.8118,1.8129,1.8131,1.8144,1.8105,1.8101,1.8097,1.8087,1.8082,1.8142,1.8142,1.8143,1.8143,0,1.7776,1.7793,1.779,1.7833,1.785,1.7856,1.7902,1.7913,1.7941,1.7971,1.7983,1.8017,1.8045,1.8049,1.8076,1.8063,1.8072,1.8096,1.8127,1.8087,1.8078,1.8074,1.8137,1.8138,1.8139,1.814,0,0,1.7693,1.7761,1.7759,1.778,1.7827,1.784,1.7848,1.7877,1.7886,1.7913,1.7921,1.7946,1.7969,1.7987,1.8017,1.8016,1.7986,1.8041,1.8043,1.8032,1.7975,1.7958,1.7952,1.8006,1.8005,1.8005,1.7973,0,1.7656,1.7677,1.7719,1.7726,1.7741,1.7789,1.7796,1.7825,1.7853,1.7869,1.7899,1.7916,1.7945,1.7956,1.7958,1.799,1.7976,1.7992,1.8014,1.8015,1.8007,1.7947,1.7929,1.7898,1.7969,1.7969,1.7968,0,1.7618,1.7645,1.7654,1.77,1.7709,1.7715,1.7745,1.7759,1.7793,1.7813,1.7833,1.7866,1.7876,1.7903,1.7918,1.7928,1.7939,1.7956,1.7955,1.7961,1.7991,1.7953,1.7888,1.7884,1.7962,1.7963,1.7963,0,1.7558,1.7596,1.7607,1.7622,1.7676,1.768,1.7702,1.7737,1.7751,1.7776,1.7787,1.7811,1.7826,1.7844,1.7882,1.7898,1.7893,1.7923,1.791,1.7909,1.7909,1.7909,1.7847,1.7912,1.7912,1.7912,1.7912,0,1.7515,1.7519,1.7581,1.7587,1.7593,1.7639,1.7643,1.7669,1.77,1.7712,1.7752,1.7762,1.7812,1.7827,1.7856,1.7865,1.787,1.7887,1.7895,1.7885,1.7883,1.7894,1.7898,1.7911,1.7911,1.7912,1.7912,0,1.745,1.7492,1.7507,1.7557,1.7569,1.7571,1.7614,1.7622,1.7651,1.7666,1.7672,1.7718,1.7738,1.7778,1.7808,1.7828,1.783,1.7843,1.782,1.7825,1.7811,1.7813,1.7757,1.7752,1.7817,1.7817,1.7816,0,1.7421,1.7426,1.7477,1.7489,1.751,1.7528,1.7544,1.7588,1.7602,1.7641,1.7643,1.7667,1.7689,1.7718,1.7754,1.7777,1.7792,1.7771,1.7796,1.7786,1.7794,1.7795,1.7796,1.7766,1.7765,1.7764,1.7764,0,1.7366,1.7386,1.7408,1.7437,1.7455,1.7479,1.7506,1.7512,1.7563,1.7576,1.7599,1.7615,1.7647,1.767,1.7699,1.772,1.775,1.7755,1.7754,1.7744,1.7731,1.774,1.7807,1.7757,1.7757,1.7758,1.7758,1.7759,1.732,1.7326,1.7363,1.7386,1.7411,1.7435,1.7445,1.7476,1.7496,1.7527,1.7551,1.7571,1.7603,1.7645,1.7665,1.7681,1.7695,1.7693,1.7692,1.7692,1.7688,1.7727,1.7685,1.7686,1.7686,1.7686,1.7686,0,1.7268,1.7294,1.7315,1.7351,1.7369,1.7396,1.7427,1.7439,1.7457,1.7485,1.7506,1.7531,1.7554,1.7591,1.7616,1.7621,1.7636,1.7626,1.7628,1.7632,1.7673,1.7672,1.7614,1.7614,1.7615,1.7615,1.7615,1.7615,1.7243,1.7257,1.7281,1.7306,1.7332,1.7354,1.7369,1.739,1.7414,1.744,1.746,1.7484,1.7516,1.7544,1.7565,1.7575,1.7584,1.757,1.7585,1.7622,1.7629,1.7636,1.7636,1.7571,1.7571,1.7544,1.7543,1.7543]}]]